Regional Weather Roundup
Issued by NWS

Home | Current Version | Previous Version | Graphics & Text | Print | Product List | Glossary On
Versions: 1 2 3 4 5 6 7 8 9 10 11 12 13 14 15 16 17 18 19 20 21 22 23 24 25 26 27 28 29 30 31 32 33 34 35 36 37 38 39 40 41 42 43 44 45 46 47 48 49 50
000
ASUS43 KOAX 011502
RWRNE

WEATHER ROUNDUP FOR NEBRASKA
NATIONAL WEATHER SERVICE OMAHA NE
900 AM CST SUN FEB 01 2015

NOTES: SATELLITE DATA IS BEING USED TO AUGMENT CLOUD COVER ABOVE
       12000 FEET.
       "FAIR" INDICATES FEW OR NO CLOUDS BELOW 12,000 FEET WITH NO
       SIGNIFICANT WEATHER AND/OR OBSTRUCTIONS TO VISIBILITY.

  * THESE STATIONS DO NOT REPORT WEATHER SUCH AS RAIN...SNOW OR FOG.

NEZ001>004-019>022-054>056-011600-
NEBRASKA PANHANDLE

CITY           SKY/WX    TMP DP  RH WIND       PRES   REMARKS
SCOTTSBLUFF    CLOUDY    17  10  74 N17G26    30.22R WCI   1
ALLIANCE       CLOUDY     6   1  80 N17       30.21R WCI -13
CHADRON        CLOUDY     6   1  80 N9        30.32R WCI  -8
SIDNEY         LGT SNOW  10   6  84 N20       30.16R FOG     WCI  -9
$$

NEZ057>060-069>072-079>082-011600-
SOUTHWEST NEBRASKA

CITY           SKY/WX    TMP DP  RH WIND       PRES   REMARKS
NORTH PLATTE   CLOUDY     8   1  73 NW23      30.21R WCI -13
IMPERIAL       CLOUDY    13   5  70 N20       30.20R WCI  -5
MCCOOK         SUNNY     13   5  70 NW24      30.19R WCI  -7
$$

NEZ005>010-023>029-035>040-094-011600-
NORTH CENTRAL NEBRASKA

CITY           SKY/WX    TMP DP  RH WIND       PRES   REMARKS
VALENTINE      LGT SNOW   0  -6  76 N20G31    30.29R VSB 3/4 WCI -22
BROKEN BOW     LGT SNOW   7   2  80 N29G39    30.16R VSB 1   WCI -16
ORD            LGT SNOW   6  -1  73 N25G33    30.17R VSB 3/4 WCI -16
$$

NEZ041-046>049-061>064-073>077-083>087-011600-
SOUTH CENTRAL NEBRASKA

CITY           SKY/WX    TMP DP  RH WIND       PRES   REMARKS
GRAND ISLAND   BLWGSNOW   8   4  83 N29G39    30.13R VSB 1/4 WCI -15
HASTINGS       FOG        9   5  84 N30G45    30.09R VSB 1/4 WCI -14
KEARNEY *      CLOUDY     9   3  78 N30G37    30.13R VSB 1   WCI -14
$$

NEZ011>018-030>034-042>045-011600-
NORTHEAST NEBRASKA

CITY           SKY/WX    TMP DP  RH WIND       PRES   REMARKS
NORFOLK        LGT SNOW   8   4  83 N26G40    30.11R VSB 3/4 WCI -14
TEKAMAH        FOG       19  16  88 N35       30.02R VSB 1/2 WCI  -1
$$

NEZ050>053-065>068-078-088>093-011600-
SOUTHEAST NEBRASKA

CITY           SKY/WX    TMP DP  RH WIND       PRES   REMARKS
LINCOLN        SNOW      20  16  84 N33G45    29.99R VSB 1/2 WCI   0
OMAHA EPPLEY   LGT SNOW  22  19  89 N26G33    29.94R BLWGSNOWWCI   5
FALLS CITY     LGT SNOW  30  28  92 N21G30    29.81R VSB 3/4 WCI  17
$$

NEZ044-045-051>053-067-011600-
OMAHA AREA

CITY           SKY/WX    TMP DP  RH WIND       PRES   REMARKS
OMAHA EPPLEY   LGT SNOW  22  19  89 N26G33    29.94R BLWGSNOWWCI   5
OFFUTT AFB     LGT SNOW  23  19  85 N16G25    29.93R FOG     WCI   9
$$


USA.gov is the U.S. government's official web portal to all federal, state and local government web resources and services.